TimeCST,TemperatureF,Dew PointF,Humidity,Sea Level PressureIn,VisibilityMPH,Wind Direction,Wind SpeedMPH,Gust SpeedMPH,PrecipitationIn,Events,Conditions,WindDirDegrees,DateUTC
12:53 AM,28.9,15.1,56,30.47,10.0,East,5.8,-,N/A,,Scattered Clouds,100,2013-11-25 06:53:00
1:53 AM,30.0,16.0,56,30.44,10.0,East,5.8,-,N/A,,Overcast,90,2013-11-25 07:53:00
2:53 AM,30.0,16.0,56,30.43,10.0,SE,5.8,-,N/A,,Overcast,140,2013-11-25 08:53:00
3:53 AM,30.0,16.0,56,30.41,10.0,SSE,5.8,-,N/A,,Overcast,160,2013-11-25 09:53:00
4:53 AM,30.0,18.0,61,30.41,10.0,SSE,4.6,-,N/A,,Overcast,150,2013-11-25 10:53:00
5:53 AM,30.0,18.0,61,30.39,10.0,SSE,8.1,-,N/A,,Mostly Cloudy,150,2013-11-25 11:53:00
6:53 AM,30.0,18.0,61,30.38,10.0,SSE,4.6,-,N/A,,Overcast,160,2013-11-25 12:53:00
7:53 AM,30.9,19.0,61,30.37,10.0,SSE,5.8,-,N/A,,Overcast,150,2013-11-25 13:53:00
8:53 AM,32.0,19.0,59,30.37,10.0,South,6.9,-,N/A,,Overcast,170,2013-11-25 14:53:00
9:53 AM,34.0,19.0,54,30.37,10.0,SSW,5.8,-,N/A,,Overcast,210,2013-11-25 15:53:00
10:53 AM,34.0,19.0,54,30.35,10.0,South,8.1,-,N/A,,Overcast,190,2013-11-25 16:53:00
11:53 AM,34.0,19.9,56,30.32,10.0,SW,6.9,-,N/A,,Overcast,220,2013-11-25 17:53:00
12:53 PM,34.0,21.0,59,30.30,10.0,SSW,6.9,-,N/A,,Overcast,200,2013-11-25 18:53:00
1:53 PM,34.0,23.0,64,30.29,9.0,SSW,4.6,-,0.00,,Overcast,210,2013-11-25 19:53:00
2:53 PM,33.1,25.0,72,30.27,10.0,South,3.5,-,0.00,,Overcast,180,2013-11-25 20:53:00
3:53 PM,33.1,25.0,72,30.25,10.0,SE,5.8,-,0.00,,Overcast,140,2013-11-25 21:53:00
4:53 PM,33.1,25.0,72,30.27,10.0,SE,3.5,-,N/A,,Overcast,140,2013-11-25 22:53:00
5:53 PM,33.1,26.1,75,30.27,10.0,South,4.6,-,N/A,,Overcast,170,2013-11-25 23:53:00
6:53 PM,33.1,26.1,75,30.27,10.0,SW,3.5,-,N/A,,Overcast,230,2013-11-26 00:53:00
7:53 PM,33.1,26.1,75,30.24,10.0,Calm,Calm,-,N/A,,Overcast,0,2013-11-26 01:53:00
8:53 PM,32.0,27.0,82,30.21,10.0,SE,3.5,-,N/A,,Overcast,140,2013-11-26 02:53:00
9:34 PM,33.1,27.0,78,30.23,10.0,South,3.5,-,N/A,,Overcast,190,2013-11-26 03:34:00
9:53 PM,33.1,28.0,82,30.24,10.0,Calm,Calm,-,N/A,,Overcast,0,2013-11-26 03:53:00
10:53 PM,33.1,28.0,82,30.24,10.0,Calm,Calm,-,N/A,,Overcast,0,2013-11-26 04:53:00
11:26 PM,33.1,28.9,85,30.21,10.0,Calm,Calm,-,N/A,,Overcast,0,2013-11-26 05:26:00
11:53 PM,33.1,28.0,82,30.22,10.0,WNW,3.5,-,N/A,,Overcast,290,2013-11-26 05:53:00